Location: Six Mile Lake
(44.9000°N, 79.7170°W)
Time: 16:32:34
(UTC-04:00)

AAUSAT CUBESAT 2 - Pass Details

Date: 08 July 2022
Orbit: 567 x 580 km, 97.5° (Epoch: 08 August)

Event Time Altitude Azimuth Distance (km) Brightness Sun altitude
Rises 04:56:18 0° 33° (NNE) 2,784 ? -7.1°
Reaches altitude 10° 04:59:36 10° 62° (ENE) 1,883 ? -6.7°
Maximum altitude 05:01:27 13° 90° (E) 1,704 ? -6.4°
Drops below altitude 10° 05:03:19 10° 117° (ESE) 1,880 ? -6.2°
Sets 05:06:36 0° 146° (SE) 2,775 ? -5.7°
